Location: Putah Creek Observatory
(38.7021°N, 122.3865°W)
Time: 21:41:21
(UTC-07:00)

ISS - Pass Details

Date: 20 March 2019
Orbit: 408 x 410 km, 51.6° (Epoch: 20 April)

Event Time Altitude Azimuth Distance (km) Brightness Sun altitude
Rises 20:51:24 0° 224° (SW) 2,323 0.4 -18.2°
Reaches altitude 10° 20:53:29 10° 222° (SW) 1,465 -0.7 -18.5°
Enters shadow 20:56:33 66° 168° (SSE) 448 -3.8 -19.1°
